POEM-2 (56308 NORAD) Tracking and Keplerian Element Data

This shows tracking and keplerian element data for the satellite.

Feedback or suggestion? Click here.




ElementValue
Catalog56308
NamePOEM-2
Epoch Orbit1888
Epoch Day238.9266093
Epoch Year2023
RAAN119.0299
Inclination9.8877
Eccentricity0.002372
Argument of Perigee189.449
Mean Anonmoly170.5274
Mean Motion14.88700603
Decay Rate2.523E-05
L11 56308U 23057A 23238.92660930 .00002523 00000+0 19299-3 0 9996
L22 56308 9.8877 119.0299 0023720 189.4490 170.5274 14.88700603 18881



Live tracking and technical data element details for POEM-2 (NORAD 56308). POEM-2 can be tracked NOW for your location showing map with azimuth and elevation plus other details from your city location.







IsCatalogInMostPopularTable: catalog: 56308, numindb: 19
Update: records affected: 1



GetName: 56308 POEM-2

Hit Count: updated at: Thu, 28 Sep 2023 03:22:56 GMT